Weather Roundup
Issued by NWS

Home | Current Version | Previous Version | Text Only | Print | Product List | Glossary On
Versions: 1 2 3 4 5 6 7 8 9 10 11 12 13 14 15 16 17 18 19 20 21 22 23 24 25 26 27 28 29 30 31 32 33 34 35 36 37 38 39 40 41 42 43 44 45 46 47 48 49 50
668
NZUS93 KARX 301910
HRRWXR

CURRENT HOURLY OBSERVATIONS ACROSS
MUCH OF THE UPPER MISSISSIPPI VALLEY
NATIONAL WEATHER SERVICE LA CROSSE WI
200 PM CDT SAT JUL 30 2016


...SOUTHEAST MINNESOTA...


CITY           SKY/WX    TMP DP  RH WIND       PRES   REMARKS
ROCHESTER      MOSUNNY   76  64  66 SE5       30.03F
ROCHESTER/MAYO CLOUDY    75  63  64 E5        30.03F
WINONA         MOSUNNY   79  61  53 E7        30.02F
AUSTIN         CLOUDY    72  64  78 E3        30.03F
ALBERT LEA     PTSUNNY   75  64  69 SE6       30.03S
DODGE CENTER   RAIN      72  64  78 S8        30.05R
PRESTON        MOSUNNY   76  62  60 SE9       30.04F
OWATONNA       SUNNY     75  63  64 CALM      30.02F
FARIBAULT      SUNNY     75  64  69 S5        30.02F
$$

...ELSEWHERE IN MINNESOTA...


CITY           SKY/WX    TMP DP  RH WIND       PRES   REMARKS
MINNEAPOLIS    MOSUNNY   79  62  56 SE12      30.01F
INTNL FALLS    PTSUNNY   77  59  53 MISG      30.00F
DULUTH         MOSUNNY   75  61  61 VRB7      30.05F
RED WING       MOSUNNY   81  57  44 E8        30.01F
REDWOOD FALLS  PTSUNNY   78  54  43 VRB5      30.01F
MANKATO        SUNNY     77  59  53 E3        30.01F
WORTHINGTON    SUNNY     76  56  49 SE7       30.03F
FAIRMONT       CLOUDY    75  57  53 CALM      30.02F
$$

...SOUTHWEST WISCONSIN...


CITY           SKY/WX    TMP DP  RH WIND       PRES   REMARKS
LA CROSSE      CLOUDY    78  61  55 SE5       30.02F
PRAIRIE DU CHI PTSUNNY   76  64  66 E3        30.01F
BOSCOBEL       PTSUNNY   81  63  54 E7        30.02F
LONE ROCK      MOSUNNY   78  61  55 NE13      30.03F
PLATTEVILLE    MOSUNNY   78  62  57 E7        30.02F
FORT MC COY    CLOUDY    79  61  54 E7        30.04F
CAMP DOUGLAS   PTSUNNY   77  64  65 SE7       30.04F
MAUSTON-NEW LI CLOUDY    78  65  63 E5        30.04S
VIROQUA        CLOUDY    76  62  60 SE5       30.05F
WIS DELLS      CLOUDY    75  60  58 E5        30.05S
$$

...ELSEWHERE IN WISCONSIN...


CITY           SKY/WX    TMP DP  RH WIND       PRES   REMARKS
MILWAUKEE      PTSUNNY   75  63  66 NE14      30.03S
MADISON        CLOUDY    78  62  57 VRB6      30.02F
GREEN BAY      SUNNY     76  58  53 NE9       30.05F
EAU CLAIRE     PTSUNNY   78  60  53 SE7       30.02F
BLACK RVR FLS  CLOUDY    80  60  50 E6        30.03S
MEDFORD        SUNNY     73  59  62 CALM      30.07F
WAUSAU         CLOUDY    74  57  55 E8        30.05F
WIS RAPIDS     CLOUDY    77  58  51 E9        30.06F
MARSHFIELD     MOSUNNY   79  60  52 SE10G18   30.05F
RICE LAKE      SUNNY     78  57  49 E6        30.06F
$$

...NORTHEAST IOWA...


CITY           SKY/WX    TMP DP  RH WIND       PRES   REMARKS
WATERLOO       MOSUNNY   77  63  61 NE3       30.00F
DUBUQUE          N/A    N/A N/A N/A MISG      30.02F
DECORAH        PTSUNNY   75  64  69 E7        30.02F
MASON CITY     MOSUNNY   79  66  64 SE7       30.03F
CHARLES CITY   MOSUNNY   77  66  69 CALM      30.02F
OELWEIN        PTSUNNY   75  64  69 CALM      30.02F
$$

...ELSEWHERE IN IOWA...


CITY           SKY/WX    TMP DP  RH WIND       PRES   REMARKS
DES MOINES     PTSUNNY   78  64  61 NE3       30.00F
IOWA CITY      PTSUNNY   79  65  62 CALM      30.00F
FORT DODGE     PTSUNNY   79  64  61 E5        30.03F
MARSHALLTOWN   CLOUDY    78  66  66 VRB5      30.01F
CEDAR RAPIDS   PTSUNNY   78  67  68 VRB3      29.99F
$$

...NORTHERN ILLINOIS...


CITY           SKY/WX    TMP DP  RH WIND       PRES   REMARKS
CHICAGO-OHARE  PTSUNNY   75  65  70 NE12      29.98F
CHICAGO-MIDWAY PTSUNNY   78  65  63 NE12      29.97F
MOLINE         PTSUNNY   81  67  62 CALM      29.98F
ROCKFORD       PTSUNNY   78  64  61 E9        30.01F
PEORIA         PTSUNNY   79  67  66 N7        29.97F
$$

NOTE: "FAIR" INDICATES FEW OR NO CLOUDS BELOW 12,000 FEET WITH NO
SIGNIFICANT WEATHER AND/OR OBSTRUCTIONS TO VISIBILITY. WIND
SPEEDS ARE IN MILES-PER-HOUR.




USA.gov is the U.S. government's official web portal to all federal, state and local government web resources and services.